Total_Precipitation_Accumulation
1.41 1.37 1.30 1.33 1.21 1.11 1.17 1.26 1.31 1.36 1.27 1.12 1.07 1.11 1.22 1.21 1.29 1.53 1.97 2.59 3.18 3.62 3.79 3.67 3.53 3.41 3.39 3.41 3.63 3.81 3.93 4.07 3.90 3.73 3.55 3.36 3.40 3.41 3.04 2.97 3.13 3.39 3.75
1.44 1.49 1.40 1.32 1.25 1.18 1.20 1.38 1.35 1.37 1.36 1.29 1.13 1.15 1.20 1.19 1.21 1.30 1.50 1.96 2.44 2.98 3.60 3.98 3.81 3.59 3.40 3.38 3.44 3.57 3.77 3.83 3.50 3.38 3.39 3.44 3.59 3.66 3.24 3.09 3.04 3.06 3.36
1.27 1.35 1.36 1.28 1.25 1.26 1.29 1.34 1.37 1.45 1.38 1.28 1.25 1.22 1.21 1.17 1.11 1.18 1.15 1.31 1.49 2.03 2.74 3.33 3.68 3.76 3.75 3.61 3.55 3.59 3.71 3.51 3.23 3.32 3.47 3.49 3.44 3.44 3.39 3.24 3.05 3.00 3.14
1.36 1.38 1.40 1.34 1.34 1.36 1.36 1.40 1.47 1.47 1.44 1.42 1.38 1.34 1.22 1.20 1.15 1.14 1.09 1.09 1.18 1.26 1.64 2.15 2.69 3.19 3.52 3.65 3.80 3.92 3.70 3.27 3.01 2.98 3.12 2.97 2.87 2.99 3.12 3.11 2.95 2.83 2.74
1.43 1.53 1.55 1.53 1.46 1.49 1.50 1.45 1.48 1.41 1.42 1.43 1.34 1.36 1.31 1.27 1.22 1.09 1.12 1.09 1.11 1.08 1.23 1.41 1.70 2.11 2.60 3.11 3.72 3.98 3.50 3.15 2.92 2.69 2.61 2.54 2.57 2.70 2.75 2.60 2.53 2.49 2.47
1.67 1.84 1.90 1.78 1.74 1.73 1.72 1.66 1.71 1.60 1.49 1.52 1.38 1.36 1.34 1.26 1.28 1.26 1.24 1.17 1.21 1.16 1.17 1.21 1.32 1.40 1.80 2.32 3.09 3.52 3.36 3.15 2.92 2.76 2.55 2.48 2.58 2.69 2.66 2.56 2.51 2.52 2.53
1.96 2.11 2.01 2.09 2.09 1.96 1.94 2.00 2.05 2.01 1.82 1.66 1.71 1.61 1.35 1.17 1.25 1.22 1.24 1.30 1.31 1.39 1.41 1.33 1.35 1.38 1.44 1.73 2.30 2.95 3.19 3.10 3.06 2.88 2.73 2.64 2.56 2.58 2.58 2.55 2.57 2.61 2.70
2.17 2.19 2.27 2.36 2.38 2.38 2.32 2.20 2.32 2.48 2.20 1.95 2.08 2.37 1.98 1.63 1.28 1.05 1.16 1.26 1.33 1.57 1.61 1.42 1.29 1.30 1.38 1.55 1.57 1.98 2.41 2.76 2.98 3.04 2.94 2.80 2.68 2.69 2.74 2.62 2.54 2.64 2.70
2.39 2.41 2.46 2.51 2.52 2.38 2.38 2.49 2.62 2.97 2.78 2.39 2.18 2.49 2.34 2.04 1.73 1.27 1.15 1.25 1.35 1.51 1.61 1.66 1.58 1.49 1.42 1.51 1.55 1.42 1.63 2.10 2.59 2.97 3.06 3.00 2.86 3.06 3.24 2.99 2.68 2.53 2.39
2.37 2.45 2.44 2.42 2.38 2.33 2.40 2.48 2.53 2.96 3.20 2.90 2.53 2.11 1.89 1.88 2.01 1.74 1.30 1.25 1.36 1.38 1.48 1.57 1.55 1.66 1.61 1.63 1.69 1.48 1.38 1.70 2.15 2.68 3.09 3.42 3.23 3.05 3.02 3.11 2.93 2.57 2.30
2.27 2.28 2.26 2.34 2.34 2.36 2.43 2.62 2.75 3.01 3.07 3.09 2.89 2.63 2.39 2.08 1.77 1.87 1.83 1.55 1.48 1.37 1.45 1.57 1.62 1.76 1.81 1.84 2.01 1.77 1.49 1.42 1.68 2.18 2.79 3.39 3.61 3.34 3.01 2.95 2.93 2.74 2.42
2.22 2.15 2.11 2.17 2.28 2.40 2.45 2.55 2.74 3.00 3.13 3.24 3.14 2.83 2.72 2.56 2.29 2.19 1.96 1.81 1.77 1.52 1.46 1.52 1.56 1.71 1.91 1.99 1.97 2.13 1.78 1.39 1.36 1.70 2.09 2.74 3.43 3.60 3.39 3.27 3.21 3.09 2.83
1.90 1.96 2.04 2.12 2.25 2.33 2.39 2.51 2.65 2.72 2.86 3.13 3.15 2.96 2.74 2.55 2.55 2.42 2.32 2.02 1.82 1.56 1.54 1.55 1.53 1.58 1.63 1.93 2.06 2.19 1.84 1.48 1.26 1.32 1.55 1.91 2.47 3.03 3.31 3.32 3.33 3.45 3.46
1.81 1.75 1.79 1.87 2.09 2.27 2.36 2.45 2.46 2.46 2.53 2.74 2.76 2.82 2.78 2.52 2.48 2.40 2.42 2.57 2.26 1.96 1.75 1.54 1.46 1.52 1.57 1.78 2.10 2.20 1.75 1.60 1.35 1.24 1.27 1.48 1.71 1.95 2.40 2.91 3.25 3.46 3.68
1.60 1.54 1.58 1.61 1.73 1.94 2.18 2.34 2.31 2.25 2.23 2.39 2.45 2.54 2.68 2.71 2.62 2.54 2.54 2.69 2.70 2.41 2.12 1.83 1.61 1.50 1.57 1.69 2.11 2.01 1.79 1.73 1.62 1.41 1.25 1.30 1.37 1.50 1.69 2.07 2.38 2.62 2.82
1.43 1.36 1.37 1.49 1.64 1.74 1.91 2.12 2.20 2.16 2.18 2.28 2.39 2.50 2.64 2.78 2.80 2.59 2.57 2.61 2.53 2.52 2.34 1.90 1.63 1.54 1.61 1.59 1.96 1.94 1.90 1.99 1.75 1.59 1.48 1.38 1.40 1.37 1.42 1.61 1.70 1.84 1.84
1.27 1.25 1.39 1.48 1.56 1.65 1.82 2.06 2.20 2.22 2.17 2.19 2.19 2.27 2.47 2.60 2.82 2.76 2.65 2.60 2.52 2.44 2.33 2.06 1.79 1.62 1.69 1.72 1.84 1.95 1.95 1.87 1.69 1.67 1.50 1.37 1.34 1.36 1.37 1.46 1.60 1.58 1.53
1.03 1.14 1.27 1.30 1.35 1.37 1.57 1.86 2.06 2.11 2.11 2.01 1.97 2.09 2.33 2.52 2.73 2.84 2.79 2.67 2.62 2.50 2.42 2.40 2.21 1.96 1.84 1.82 1.97 2.08 2.03 1.96 1.89 1.91 1.74 1.53 1.44 1.37 1.36 1.36 1.44 1.59 1.57
1.08 1.17 1.22 1.26 1.29 1.34 1.38 1.51 1.70 1.85 1.85 1.81 1.82 1.84 1.86 2.07 2.38 2.59 2.64 2.71 2.73 2.69 2.69 2.57 2.43 2.34 2.20 1.96 2.06 2.14 2.11 2.13 2.01 2.06 2.03 1.89 1.75 1.62 1.52 1.46 1.46 1.50 1.56
1.07 1.15 1.17 1.23 1.31 1.36 1.36 1.39 1.42 1.49 1.54 1.62 1.67 1.67 1.71 1.77 2.01 2.24 2.33 2.50 2.74 2.79 2.89 2.84 2.59 2.49 2.45 2.18 2.20 2.32 2.41 2.32 2.21 2.05 2.07 1.98 1.94 1.84 1.73 1.59 1.51 1.46 1.46
0.97 1.06 1.11 1.11 1.16 1.25 1.36 1.42 1.31 1.28 1.37 1.46 1.45 1.39 1.43 1.61 1.83 1.98 1.96 2.23 2.57 2.80 2.87 2.87 2.70 2.67 2.49 2.29 2.14 2.11 2.26 2.48 2.47 2.37 2.28 2.04 1.93 1.78 1.78 1.79 1.63 1.46 1.43
0.96 0.99 0.94 0.96 1.04 1.07 1.35 1.38 1.22 1.15 1.20 1.30 1.39 1.37 1.26 1.28 1.41 1.54 1.61 1.75 2.01 2.24 2.59 2.82 2.75 2.65 2.37 2.21 2.19 2.15 2.14 2.24 2.43 2.37 2.35 2.36 2.28 2.17 2.05 1.94 1.94 1.79 1.65
0.94 0.96 0.92 0.91 0.93 1.07 1.21 1.11 1.15 1.09 1.12 1.19 1.28 1.37 1.28 1.18 1.34 1.37 1.50 1.60 1.56 1.64 1.98 2.37 2.53 2.55 2.54 2.43 2.35 2.18 2.11 2.17 2.21 2.24 2.40 2.44 2.39 2.39 2.30 2.30 2.40 2.18 1.97
0.92 0.92 0.97 0.97 0.96 1.03 1.09 1.01 1.11 1.06 1.03 1.09 1.21 1.32 1.37 1.30 1.36 1.50 1.46 1.47 1.41 1.41 1.69 1.72 1.95 2.35 2.51 2.55 2.44 2.43 2.57 2.51 2.33 2.21 2.24 2.30 2.17 2.19 2.25 2.28 2.44 2.32 2.16
0.97 0.98 1.02 1.01 0.93 0.94 1.05 1.01 1.07 1.03 1.03 1.05 1.07 1.16 1.26 1.21 1.47 1.63 1.50 1.61 1.61 1.51 1.76 1.89 1.95 2.05 2.24 2.41 2.43 2.37 2.41 2.47 2.41 2.28 2.10 2.01 1.90 1.92 2.07 2.10 2.11 2.20 2.16
0.84 0.94 0.94 0.94 0.94 0.93 1.18 1.13 1.12 1.02 1.04 1.12 1.14 1.11 1.30 1.33 1.52 1.54 1.38 1.58 1.63 1.59 1.60 1.67 1.66 1.69 1.64 1.83 2.11 2.14 2.32 2.39 2.29 2.19 1.90 1.81 1.77 1.83 1.94 1.78 1.63 1.63 1.62